DELTA 1 DEB, 42586

Orbit data source: Space-Track

DELTA 1 DEB, 42586 is space debris in SSO originally from a launch on Tue, 06 Nov 1973 UTC launched from the Air Force Western Test Range (AFWTR). Debris objects in space refer to the collection of defunct objects orbiting the Earth. Examples of debris include non-operational satellites, rocket bodies, and fragments generated from explosions, collisions, or faulty payload assembly.

Loading next visibility...
Identifier
42586, 1973-086JA
Orbit
SSO
Country
Flag of USUS
Related business
Manufacturer
Unknown
Mission
Spacecraft
Bus & Motor
Unknown
Mass
Unknown
Launch date (UTC)
1973-11-06 (52 years ago)
Launch vehicle
Unknown
Launch site
Air Force Western Test Range (AFWTR)
Object type
Payload
Rocket body
Debris
Shape & HBR
Unknown shape, 0.1 m
Radar Cross Section
Small (<0.1 m²)

Expand to show TLE details & history
Last TLE update: 1 week ago

TLE from 1 week ago
0 DELTA 1 DEB
1 42586U 73086JA  25290.83491203  .00000031  00000-0  61126-3 0  9990
2 42586 102.3965 306.9536 0030869 237.7077 304.7254 12.35467191536945
Epoch: 2025-10-17T20:02Z
TLE epoch observation values (Epoch: 2025-10-17T20:02:16.399Z)
Latitude
-2.20749°
Longitude
159.3276°
Altitude
1,514.868 km
Speed
7.114 km/s
True Right ascension
08h 25m 52s
True Declination
-2° 11' 44"
Sunlit
Object was in daylight at epoch
Visualization orbit readout
Latitude
Unknown
Longitude
Unknown
Altitude
Unknown
Speed
Unknown
Apparent Right ascension
Unknown
Apparent Declination
Unknown
Sunlit
N/A
Visualization observer readout
Local Sidereal Time
04:52:47
Azimuth
Unknown
Elevation
Unknown
Doppler factor
Unknown
Orbital elements
Apogee altitude
1,547.873 km
Perigee altitude
1,499.09 km
Semi-major axis
7,901.618 km
Eccentricity
0.00309
Inclination
102.3965°
RAAN
306.9536°
Arg. of periapsis
237.7077°
True anomaly
304.43403°
Mean anomaly
304.7254°
Eccentric anomaly
304.57978°
Mean motion
3.09008 °/min
Orbital period
116.5 mins
BSTAR
0.00061126
Loading maneuver chart data...
Computing Atmospheric mass density...
Loading historical data...
Loading historical data...
Loading historical data...
Loading historical data...
Loading historical data...
Loading historical data...
Loading historical data...

Documentation

Showing up to 5 results
|